Weather History for Big Piney, WY

Change the Weather History Date:

Tuesday, March 19, 2013

  Actual Average Record
Temperature  
Mean Temperature 27 °F 29 °F  
Max Temperature 41 °F 43 °F 62 °F (2007)
Min Temperature 13 °F 15 °F -2 °F (1980)
Degree Days  
Heating Degree Days 38 36  
Month to date heating degree days 658 766  
Since 1 July heating degree days 7522 8289  
Cooling Degree Days 0 0  
Month to date cooling degree days 0 0  
Year to date cooling degree days 0 0  
Moisture  
Dew Point -2 °F    
Average Humidity 37    
Maximum Humidity 64    
Minimum Humidity 10    
Precipitation  
Precipitation 0.00 in 0.02 in 0.13 in (2010)
Month to date precipitation T 0.23  
Year to date precipitation 0.16 0.89  
Sea Level Pressure  
Sea Level Pressure 30.19 in    
Wind  
Wind Speed 10 mph (North)    
Max Wind Speed 21 mph    
Max Gust Speed 28 mph    
Visibility 10 miles    
Events      
T = Trace of Precipitation, MM = Missing Value Source: NWS Daily Summary

Daily Weather History Graph

Daily Weather History Graph

Search for Another Location

Airport:

Trip Planner

Search our weather history database for the weather conditions in past years. The results will help you decide how hot, cold, wet, or windy it might be!

Date:

Astronomy

Mar. 19, 2013 Rise Set
Actual Time 7:24 AM MDT 7:31 PM MDT
Civil Twilight 6:56 AM MDT 8:00 PM MDT
Nautical Twilight 6:23 AM MDT 8:33 PM MDT
Astronomical Twilight 5:50 AM MDT 9:06 PM MDT
Moon 12:11 PM MDT (3/19) 2:28 AM MDT (3/19)
Length of Visible Light 13h 03m
Length of Day
12h 07m
Waxing Crescent, 50% of the Moon is Illuminated
Mar 19
Waxing Crescent
Mar 27
Full
Apr 2
Last Quarter
Apr 10
New
Apr 18
First Quarter

Hourly Weather History & Observations

Time (MDT) Temp. Windchill Dew Point Humidity Pressure Visibility Wind Dir Wind Speed Gust Speed Precip Events Conditions
12:53 AM 21.9 °F 11.0 °F 5.0 °F 48% 30.03 in 10.0 mi WNW 10.4 mph - N/A   Clear
1:53 AM 19.0 °F 6.8 °F 5.0 °F 54% 30.08 in 10.0 mi WNW 11.5 mph - N/A   Clear
2:53 AM 16.0 °F 4.4 °F 3.9 °F 59% 30.09 in 10.0 mi North 9.2 mph - N/A   Clear
3:53 AM 15.1 °F 1.1 °F 3.9 °F 61% 30.10 in 10.0 mi NNE 12.7 mph - N/A   Clear
4:53 AM 14.0 °F 0.5 °F 3.0 °F 62% 30.13 in 10.0 mi NNE 11.5 mph - N/A   Clear
5:53 AM 18.0 °F 6.1 °F 3.0 °F 52% 30.13 in 10.0 mi North 10.4 mph - N/A   Clear
6:53 AM 14.0 °F 2.9 °F 3.9 °F 64% 30.19 in 10.0 mi East 8.1 mph - N/A   Clear
7:53 AM 15.1 °F 4.2 °F 3.0 °F 59% 30.19 in 10.0 mi NNE 8.1 mph - N/A   Clear
8:53 AM 26.1 °F 15.6 °F 3.9 °F 39% 30.17 in 10.0 mi North 11.5 mph - N/A   Clear
9:53 AM 28.9 °F 20.4 °F 1.9 °F 32% 30.19 in 10.0 mi North 9.2 mph - N/A   Clear
10:53 AM 33.1 °F 23.0 °F -2.0 °F 22% 30.18 in 10.0 mi NNW 15.0 mph - N/A   Clear
11:53 AM 36.0 °F 26.3 °F -8.0 °F 15% 30.20 in 10.0 mi NNW 16.1 mph 25.3 mph N/A   Clear
12:53 PM 37.9 °F 32.1 °F -9.9 °F 13% 30.20 in 10.0 mi North 8.1 mph 20.7 mph N/A   Clear
1:53 PM 39.0 °F 31.4 °F -11.0 °F 12% 30.21 in 10.0 mi NW 12.7 mph 24.2 mph N/A   Clear
2:53 PM 39.9 °F 32.9 °F -11.0 °F 11% 30.22 in 10.0 mi NNW 11.5 mph 26.5 mph N/A   Clear
3:53 PM 41.0 °F 32.8 °F -11.9 °F 10% 30.22 in 10.0 mi North 16.1 mph 24.2 mph N/A   Clear
4:53 PM 39.9 °F 33.4 °F -11.0 °F 11% 30.24 in 10.0 mi NNW 10.4 mph 23.0 mph N/A   Clear
5:53 PM 39.0 °F 31.4 °F -11.0 °F 12% 30.22 in 10.0 mi NNW 12.7 mph - N/A   Clear
6:53 PM 37.0 °F 30.4 °F -9.9 °F 13% 30.25 in 10.0 mi North 9.2 mph - N/A   Clear
7:53 PM 25.0 °F 14.8 °F -9.0 °F 22% 30.32 in 10.0 mi North 10.4 mph - N/A   Clear
8:53 PM 21.0 °F 10.6 °F -0.0 °F 40% 30.29 in 10.0 mi NNW 9.2 mph - N/A   Clear
9:53 PM 21.0 °F 16.2 °F -0.0 °F 40% 30.28 in 10.0 mi East 3.5 mph - N/A   Clear
10:53 PM 21.0 °F 12.4 °F 1.0 °F 42% 30.26 in 10.0 mi NE 6.9 mph - N/A   Mostly Cloudy
11:53 PM 18.0 °F - 3.0 °F 52% 30.26 in 10.0 mi Calm Calm - N/A   Clear